Overview Statistics Trail Chart Weather Telemetry Raw packets
 

This is the latest recevied weather packets stored in our database for station/object SV9TNF-52. If no packets are shown the sender has not sent any weather packets the latest 10 day(s).

<< 62 63 64 65 66 67 68 >>
Time Temp. Humidity Pressure Rain* Wind** Luminosity Snow
1788244089 28.33° C 63% 1020 hPa 0 mm 5.36 m/s, 47° - -
1788243789 28.33° C 63% 1020 hPa 0 mm 10.28 m/s, 16° - -
1788243489 28.89° C 61% 1020 hPa 0 mm 7.6 m/s, 352° - -
1788243189 30° C 57% 1019.6 hPa 0 mm 2.68 m/s, 303° - -
1788242889 29.44° C 57% 1019.6 hPa 0 mm 1.79 m/s, 263° - -
1788242589 29.44° C 57% 1019.6 hPa 0 mm 1.79 m/s, 293° - -
1788242289 29.44° C 59% 1019.6 hPa 0 mm 0.45 m/s, 236° - -
1788241988 28.33° C 61% 1019.6 hPa 0 mm 0 m/s - -
1788241688 28.33° C 64% 1019.6 hPa 0 mm 0 m/s - -
1788241388 27.78° C 65% 1019.6 hPa 0 mm 0 m/s - -
1788241088 26.67° C 66% 1019.6 hPa 0 mm 2.24 m/s, 245° - -
1788240788 26.67° C 66% 1019.6 hPa 0 mm 3.13 m/s, 264° - -
1788240488 26.67° C 67% 1019.6 hPa 0 mm 1.79 m/s, 245° - -
1788240188 26.11° C 68% 1019.6 hPa 0 mm 3.13 m/s, 223° - -
1788239888 26.11° C 69% 1019.6 hPa 0 mm 0.89 m/s, 225° - -
1788239587 25.56° C 70% 1019.3 hPa 0 mm 2.68 m/s, 253° - -
1788239287 25° C 71% 1019.3 hPa 0 mm 1.34 m/s, 212° - -
1788238987 24.44° C 72% 1019.3 hPa 0 mm 4.02 m/s, 169° - -
1788238687 24.44° C 72% 1019.3 hPa 0 mm 3.13 m/s, 180° - -
1788238387 23.89° C 73% 1019.3 hPa 0 mm 2.68 m/s, 253° - -
1788238087 23.33° C 74% 1019.3 hPa 0 mm 4.47 m/s, 218° - -
1788237787 23.33° C 74% 1019.3 hPa 0 mm 4.47 m/s, 249° - -
1788237487 23.33° C 74% 1019.3 hPa 0 mm 4.92 m/s, 183° - -
1788237187 23.33° C 75% 1019.3 hPa 0 mm 4.47 m/s, 238° - -
1788236887 23.33° C 75% 1019.3 hPa 0 mm 5.36 m/s, 180° - -

* Rain latest hour (hover to see other rain measurements)
** Current wind speed in m/s (hover to see current wind gust speed)